SIA326 WSSS-EDDF

Flight info

Callsign SIA326
Flight time N/A
Altitude 32000
Route AROSO3A AROSO Y513 KALIL Y501 RINBA Y502 DUBAX R325 PUT L759 NISUN/N0508F340 L759 KKJ L333 JJP/N0506F360 L333 MERUN L750 RANAH B449 ETRAP/N0493F380 B449 DUKAN L850 ADEKI DCT BADIR DCT LAGAS DCT FOQUS DCT SARPI UM10 TIVUG UL852 NEGEM T746 ARGES DCT MOPUG DCT ARSIN DCT SUBEN DCT AKINI T161 DEBHI DEBHI1B
Aircraft A388/J-SADE2E3FGHIJ3J4J5M1RWXY/LB1D1

Departure

Time N/A
Airport Singapore Changi Airport (WSSS)

Arrival

Time 2026-05-04 17:56
Airport Frankfurt Main Airport (EDDF)
Time Latitude Longitude Altitude Speed Heading
2026-05-04 16:56 46.41392 20.04472 38058 ft 486 kts 300°
2026-05-04 16:57 46.79243 19.00918 38051 ft 484 kts 298°
2026-05-04 16:58 47.03992 18.30970 38036 ft 484 kts 297°
2026-05-04 17:00 47.40184 17.25198 38306 ft 473 kts 296°
2026-05-04 17:00 47.57517 16.72520 37987 ft 476 kts 291°
2026-05-04 17:01 47.67414 16.35994 37953 ft 477 kts 291°
2026-05-04 17:02 47.72879 16.15605 37959 ft 475 kts 291°
2026-05-04 17:03 47.76527 16.01892 37960 ft 476 kts 291°
2026-05-04 17:03 47.80154 15.88176 37961 ft 476 kts 291°
2026-05-04 17:04 47.84966 15.69858 37953 ft 474 kts 290°
2026-05-04 17:05 47.89752 15.51491 37947 ft 475 kts 290°
2026-05-04 17:06 47.93296 15.37796 37935 ft 475 kts 290°
2026-05-04 17:07 47.96457 15.25512 37928 ft 476 kts 290°
2026-05-04 17:07 47.99224 15.14703 37925 ft 476 kts 290°
2026-05-04 17:08 48.02740 15.00894 37925 ft 476 kts 289°
2026-05-04 17:09 48.05085 14.91641 37913 ft 476 kts 289°
2026-05-04 17:09 48.07424 14.82372 37916 ft 476 kts 289°
2026-05-04 17:10 48.13239 14.59158 37900 ft 477 kts 289°
2026-05-04 17:11 48.15560 14.49824 37894 ft 477 kts 289°
2026-05-04 17:12 48.19015 14.35861 37885 ft 476 kts 289°
2026-05-04 17:13 48.24735 14.12549 37882 ft 477 kts 289°
2026-05-04 17:14 48.29263 13.93916 37897 ft 476 kts 289°
2026-05-04 17:15 48.32653 13.79865 37898 ft 478 kts 288°
2026-05-04 17:16 48.37158 13.61052 37899 ft 478 kts 288°
2026-05-04 17:17 48.41615 13.42284 37904 ft 478 kts 288°
2026-05-04 17:18 48.46278 13.23487 37897 ft 479 kts 290°
2026-05-04 17:19 48.51250 13.04829 37912 ft 479 kts 289°
2026-05-04 17:20 48.56133 12.86118 37904 ft 479 kts 289°
2026-05-04 17:20 48.59760 12.72119 37911 ft 479 kts 289°
2026-05-04 17:21 48.64590 12.53341 37914 ft 479 kts 289°
2026-05-04 17:22 48.66992 12.43945 37914 ft 479 kts 289°
2026-05-04 17:23 48.71778 12.25109 37933 ft 480 kts 289°
2026-05-04 17:24 48.75513 12.11110 37930 ft 482 kts 295°
2026-05-04 17:25 48.82186 11.93422 37932 ft 483 kts 297°
2026-05-04 17:26 48.88845 11.75707 37924 ft 484 kts 297°
2026-05-04 17:26 48.93843 11.62349 37229 ft 483 kts 297°
2026-05-04 17:27 48.97144 11.53488 36177 ft 483 kts 296°
2026-05-04 17:27 49.00469 11.44526 35176 ft 488 kts 296°
2026-05-04 17:28 49.03249 11.37013 34357 ft 492 kts 296°
2026-05-04 17:29 49.08758 11.22075 32352 ft 477 kts 296°
2026-05-04 17:29 49.13016 11.10453 30820 ft 473 kts 296°
2026-05-04 17:30 49.17842 10.97227 29021 ft 471 kts 296°
2026-05-04 17:31 49.21002 10.88537 27775 ft 463 kts 296°
2026-05-04 17:31 49.25636 10.75730 26011 ft 452 kts 296°
2026-05-04 17:32 49.28660 10.67334 24912 ft 449 kts 296°
2026-05-04 17:33 49.33120 10.54907 23973 ft 445 kts 296°
2026-05-04 17:33 49.34610 10.50741 23968 ft 445 kts 296°
2026-05-04 17:34 49.39658 10.38785 23289 ft 444 kts 302°
2026-05-04 17:34 49.41434 10.34913 23015 ft 442 kts 302°
2026-05-04 17:35 49.46689 10.23377 22239 ft 438 kts 302°
2026-05-04 17:35 49.50166 10.15710 21713 ft 435 kts 302°
2026-05-04 17:35 49.51891 10.11899 21464 ft 433 kts 302°
2026-05-04 17:36 49.53606 10.08103 21214 ft 431 kts 302°
2026-05-04 17:36 49.55316 10.04316 20961 ft 429 kts 302°
2026-05-04 17:36 49.57019 10.00536 20706 ft 428 kts 302°
2026-05-04 17:36 49.58712 9.96773 20459 ft 426 kts 302°
2026-05-04 17:37 49.60398 9.93022 20201 ft 425 kts 302°
2026-05-04 17:37 49.62074 9.89286 19653 ft 423 kts 302°
2026-05-04 17:37 49.63735 9.85579 19064 ft 418 kts 302°
2026-05-04 17:37 49.65376 9.81912 18481 ft 412 kts 302°
2026-05-04 17:38 49.67001 9.78274 17858 ft 408 kts 302°
2026-05-04 17:38 49.68601 9.74687 17283 ft 404 kts 302°
2026-05-04 17:38 49.70191 9.71121 16735 ft 403 kts 302°
2026-05-04 17:38 49.71757 9.67602 16165 ft 400 kts 302°
2026-05-04 17:39 49.74875 9.60579 15054 ft 393 kts 302°
2026-05-04 17:39 49.76423 9.57085 14492 ft 390 kts 302°
2026-05-04 17:39 49.77949 9.53636 13945 ft 387 kts 302°
2026-05-04 17:40 49.79469 9.50197 13360 ft 384 kts 302°
2026-05-04 17:40 49.80968 9.46803 12816 ft 382 kts 301°
2026-05-04 17:40 49.82470 9.43397 12284 ft 382 kts 301°
2026-05-04 17:40 49.83959 9.40014 11742 ft 377 kts 301°
2026-05-04 17:41 49.85413 9.36644 11218 ft 374 kts 298°
2026-05-04 17:41 49.86548 9.33059 10698 ft 368 kts 288°
2026-05-04 17:41 49.87300 9.29296 10200 ft 363 kts 282°
2026-05-04 17:41 49.87995 9.25550 9917 ft 356 kts 283°
2026-05-04 17:42 49.88676 9.22005 9750 ft 339 kts 283°
2026-05-04 17:42 49.89338 9.18581 9583 ft 323 kts 283°
2026-05-04 17:42 49.89968 9.15312 9447 ft 309 kts 283°
2026-05-04 17:42 49.90568 9.12173 9296 ft 296 kts 283°
2026-05-04 17:43 49.91142 9.09151 9035 ft 289 kts 283°
2026-05-04 17:43 49.91706 9.06182 8703 ft 285 kts 283°
2026-05-04 17:43 49.92276 9.03262 8387 ft 282 kts 283°
2026-05-04 17:43 49.92846 9.00331 8057 ft 280 kts 283°
2026-05-04 17:44 49.93405 8.97462 7758 ft 279 kts 283°
2026-05-04 17:44 49.94026 8.94612 7484 ft 281 kts 292°
2026-05-04 17:44 49.95190 8.92171 7261 ft 287 kts 317°
2026-05-04 17:44 49.96944 8.90747 6988 ft 287 kts 345°
2026-05-04 17:45 49.98915 8.90569 6700 ft 284 kts
2026-05-04 17:45 50.00851 8.91114 6478 ft 277 kts 17°
2026-05-04 17:45 50.02527 8.92419 6396 ft 264 kts 41°
2026-05-04 17:45 50.03634 8.94537 6320 ft 250 kts 67°
2026-05-04 17:46 50.04252 8.97033 6085 ft 246 kts 72°
2026-05-04 17:46 50.04826 8.99535 5826 ft 245 kts 73°
2026-05-04 17:46 50.05390 9.02035 5558 ft 244 kts 73°
2026-05-04 17:46 50.05940 9.04525 5309 ft 243 kts 72°
2026-05-04 17:47 50.06493 9.07002 5082 ft 240 kts 72°
2026-05-04 17:47 50.07250 9.09303 4891 ft 241 kts 53°
2026-05-04 17:47 50.08512 9.10986 4605 ft 241 kts 26°
2026-05-04 17:47 50.10123 9.11602 4340 ft 238 kts 357°
2026-05-04 17:48 50.11692 9.10921 4130 ft 234 kts 327°
2026-05-04 17:48 50.12810 9.09161 3997 ft 230 kts 296°
2026-05-04 17:48 50.13195 9.06778 4013 ft 233 kts 274°
2026-05-04 17:48 50.13315 9.04249 4005 ft 234 kts 274°
2026-05-04 17:49 50.13449 9.01764 4002 ft 224 kts 273°
2026-05-04 17:49 50.13420 8.99431 4007 ft 206 kts 259°
2026-05-04 17:49 50.13094 8.97296 4007 ft 198 kts 253°
2026-05-04 17:49 50.12710 8.95325 4069 ft 185 kts 251°
2026-05-04 17:50 50.12296 8.93447 4029 ft 179 kts 248°
2026-05-04 17:50 50.11840 8.91642 3963 ft 179 kts 248°
2026-05-04 17:50 50.11385 8.89836 4013 ft 179 kts 248°
2026-05-04 17:50 50.10957 8.88021 4029 ft 180 kts 250°
2026-05-04 17:51 50.10540 8.86182 3965 ft 180 kts 250°
2026-05-04 17:51 50.10126 8.84353 3830 ft 178 kts 250°
2026-05-04 17:51 50.09716 8.82524 3655 ft 179 kts 250°
2026-05-04 17:51 50.09291 8.80707 3438 ft 179 kts 250°
2026-05-04 17:52 50.08847 8.78898 3220 ft 178 kts 248°
2026-05-04 17:52 50.08390 8.77125 2948 ft 179 kts 249°
2026-05-04 17:52 50.07960 8.75312 2705 ft 178 kts 251°
2026-05-04 17:52 50.07537 8.73498 2445 ft 178 kts 251°
2026-05-04 17:53 50.07112 8.71702 2215 ft 173 kts 251°
2026-05-04 17:53 50.06714 8.70032 2004 ft 156 kts 252°
2026-05-04 17:53 50.06359 8.68490 1741 ft 149 kts 252°
2026-05-04 17:53 50.05985 8.67003 1543 ft 146 kts 251°
2026-05-04 17:54 50.05622 8.65521 1369 ft 146 kts 253°
2026-05-04 17:54 50.05286 8.64031 1145 ft 144 kts 251°
2026-05-04 17:54 50.04933 8.62563 951 ft 145 kts 252°
2026-05-04 17:54 50.04592 8.61115 750 ft 142 kts 253°
2026-05-04 17:55 50.04245 8.59674 568 ft 144 kts 253°
2026-05-04 17:55 50.03904 8.58244 385 ft 140 kts 253°
2026-05-04 17:55 50.03603 8.56975 363 ft 103 kts 249°
2026-05-04 17:55 50.03398 8.56100 364 ft 71 kts 249°
2026-05-04 17:56 50.03253 8.55493 353 ft 45 kts 250°
2026-05-04 17:56 50.03180 8.55159 355 ft 26 kts 259°
2026-05-04 17:56 50.03183 8.54914 351 ft 20 kts 279°
2026-05-04 17:56 50.03207 8.54705 348 ft 16 kts 280°
2026-05-04 17:57 50.03243 8.54586 354 ft 8 kts 329°
2026-05-04 17:57 50.03277 8.54588 349 ft 5 kts 37°
2026-05-04 17:57 50.03291 8.54632 352 ft 7 kts 69°
2026-05-04 17:57 50.03313 8.54724 355 ft 11 kts 70°
2026-05-04 17:58 50.03344 8.54853 351 ft 15 kts 69°
2026-05-04 17:58 50.03384 8.55020 358 ft 17 kts 70°
2026-05-04 17:58 50.03429 8.55210 356 ft 20 kts 70°
2026-05-04 17:58 50.03479 8.55421 358 ft 22 kts 69°
2026-05-04 17:59 50.03534 8.55649 360 ft 23 kts 69°
2026-05-04 17:59 50.03592 8.55887 360 ft 24 kts 69°
2026-05-04 17:59 50.03709 8.56375 365 ft 25 kts 70°
2026-05-04 18:00 50.03771 8.56639 361 ft 26 kts 69°
2026-05-04 18:00 50.03833 8.56895 365 ft 23 kts 69°
2026-05-04 18:00 50.03884 8.57103 366 ft 18 kts 69°
2026-05-04 18:00 50.03920 8.57257 368 ft 13 kts 70°
2026-05-04 18:01 50.03946 8.57369 368 ft 9 kts 70°
2026-05-04 18:01 50.03967 8.57458 374 ft 9 kts 70°
2026-05-04 18:01 50.03991 8.57561 372 ft 11 kts 70°
2026-05-04 18:02 50.04047 8.57798 373 ft 11 kts 69°
2026-05-04 18:02 50.04073 8.57905 372 ft 11 kts 69°
2026-05-04 18:02 50.04100 8.58018 375 ft 11 kts 69°
2026-05-04 18:02 50.04131 8.58115 374 ft 9 kts 50°
2026-05-04 18:03 50.04180 8.58167 375 ft 9 kts 25°
2026-05-04 18:03 50.04234 8.58201 376 ft 7 kts 13°
2026-05-04 18:03 50.04280 8.58204 375 ft 6 kts 348°
2026-05-04 18:03 50.04314 8.58187 375 ft 5 kts 340°
2026-05-04 18:04 50.04352 8.58166 374 ft 8 kts 340°
2026-05-04 18:04 50.04411 8.58132 376 ft 10 kts 339°
2026-05-04 18:04 50.04535 8.58058 372 ft 10 kts 339°
2026-05-04 18:05 50.04597 8.58022 369 ft 3 kts 340°
2026-05-04 18:05 50.04617 8.58011 368 ft 2 kts 341°
2026-05-04 18:05 50.04623 8.58008 368 ft 0 kts 341°
2026-05-04 18:11 50.04627 8.58006 364 ft 2 kts 341°
2026-05-04 18:11 50.04644 8.57996 370 ft 3 kts 339°
2026-05-04 18:11 50.04671 8.57981 367 ft 4 kts 339°
2026-05-04 18:12 50.04699 8.57964 371 ft 4 kts 339°
2026-05-04 18:12 50.04724 8.57949 368 ft 4 kts 335°
2026-05-04 18:12 50.04741 8.57932 368 ft 2 kts 315°
2026-05-04 18:12 50.04751 8.57914 368 ft 2 kts 295°
2026-05-04 18:13 50.04758 8.57869 370 ft 6 kts 280°
2026-05-04 18:13 50.04762 8.57791 366 ft 6 kts 271°
2026-05-04 18:13 50.04763 8.57760 366 ft 0 kts 270°